This demonstration page uses our WeatherBlox Daily Observations layout. Learn more.

Left ArrowRight Arrow

41.12389, -100.76542

Hourly Observations for May 5, 2017

Temp ( °F °C ) Dew Point ( °F °C ) Humidity (%) Winds ( mph kmh ) Pressure ( in mb ) Visibility ( mi km ) Precip ( " mm )
12:53 am 00:53 Clear 40 4.4 34 1.1 79 79 NNE 3 6 30.11 1020 10 16 0.00 0.00
1:53 am 01:53 Clear 40 4.4 35 1.7 83 83 Calm 30.10 1019 10 16 0.00 0.00
2:53 am 02:53 Clear 38 3.3 33 0.6 83 83 ENE 3 6 30.09 1019 10 16 0.00 0.00
3:53 am 03:53 Clear 36 2.2 33 0.6 89 89 Calm 30.08 1019 10 16 0.00 0.00
4:53 am 04:53 Clear 36 2.2 34 1.1 93 93 Calm 30.08 1019 10 16 0.00 0.00
5:53 am 05:53 Clear 37 2.8 34 1.1 89 89 E 3 6 30.07 1018 10 16 0.00 0.00
6:53 am 06:53 Sunny 36 2.2 33 0.6 89 89 Calm 30.07 1018 10 16 0.00 0.00
7:53 am 07:53 Sunny 41 5 37 2.8 86 86 Calm 30.06 1018 10 16 0.00 0.00
8:53 am 08:53 Sunny 51 10.6 40 4.4 66 66 NW 3 6 30.07 1018 10 16 0.00 0.00
9:53 am 09:53 Sunny 57 13.9 44 6.7 62 62 WNW 3 6 30.07 1018 10 16 0.00 0.00
10:53 am 10:53 Sunny 64 17.8 41 5 43 43 Calm 30.05 1018 10 16 0.00 0.00
11:53 am 11:53 Sunny 69 20.6 42 5.6 38 38 Calm 30.04 1017 10 16 0.00 0.00
12:53 pm 12:53 Sunny 72 22.2 41 5 33 33 WSW 7 11 30.02 1017 10 16 0.00 0.00
1:53 pm 13:53 Sunny 74 23.3 38 3.3 27 27 Calm 29.99 1016 10 16 0.00 0.00
2:53 pm 14:53 Sunny 77 25 37 2.8 24 24 Calm 29.96 1015 10 16 0.00 0.00
3:53 pm 15:53 Sunny 78 25.6 42 5.6 28 28 SW 5 7 29.94 1014 10 16 0.00 0.00
4:53 pm 16:53 Sunny 78 25.6 41 5 27 27 VRB 5 7 29.92 1013 10 16 0.00 0.00
5:53 pm 17:53 Sunny 80 26.7 39 3.9 23 23 Calm 29.89 1012 10 16 0.00 0.00
6:53 pm 18:53 Sunny 78 25.6 41 5 27 27 SSW 5 7 29.89 1012 10 16 0.00 0.00
7:53 pm 19:53 Sunny 77 25 41 5 28 28 Calm 29.87 1012 10 16 0.00 0.00
8:53 pm 20:53 Clear 62 16.7 49 9.4 62 62 ESE 3 6 29.89 1012 10 16 0.00 0.00
9:53 pm 21:53 Clear 56 13.3 44 6.7 65 65 ESE 8 13 29.91 1013 10 16 0.00 0.00
10:53 pm 22:53 Clear 51 10.6 42 5.6 71 71 ESE 9 15 29.91 1013 10 16 0.00 0.00
11:53 pm 23:53 Clear 50 10 42 5.6 74 74 ESE 8 13 29.91 1013 10 16 0.00 0.00

Powered by AerisWeather